Home > Weather > Dormagen > Past weeks

Flag for Germany Past Weather in Dormagen, North Rhine-Westphalia, Germany — Yesterday and Last 2 Weeks

Now
61 °F

Light rain. Fog.


Feels Like: 61 °F
Forecast: 54 / 67 °F
Wind: 9 mph from North

Location: Duesseldorf

Current Time: Jun 25, 2016 at 10:58:58 AM

Latest Report: Jun 25, 2016 at 10:20 AM


Visibility: 3 mi

Pressure: 29.95 "Hg

Humidity: 94%

Dew Point: 59 °F

Location of DormagenLocation

Past Weather in Dormagen — Graph

°F

Dormagen Temperature Yesterday

Maximum temperature yesterday: 77 °F (at 1:20 PM)
Minimum temperature yesterday: 66 °F (at 12:50 AM)
Average temperature yesterday: 71 °F

High & Low Weather Summary for the Past Weeks

 TemperatureHumidityPressure
High91 °F (Jun 23, 3:20 PM)100% (Jun 12, 2:50 AM)30.27 "Hg (Jun 12, 2:50 AM)
Low50 °F (Jun 16, 2:20 AM)31% (Jun 10, 3:50 PM)29.45 "Hg (Jun 14, 6:20 PM)
Average63 °F82%29.87 "Hg
* Reported Jun 10 9:20 AM — Jun 25 9:20 AM, Dormagen, Weather by CustomWeather, © 2016

Note: Actual official high and low records may vary slightly from our data, if they occured in-between our weather recording intervals... More about our weather records

Advertising

Dormagen Weather History for the Previous 24 Hours

Scroll right to see more
 ConditionsComfort  
Time TempWeatherWind HumidityBarometerVisibility
9:20 AM
Sat, Jun 25
63 °FRain. Fog.6 mph94%29.95 "Hg2 mi
8:50 AM63 °FRain. Fog.6 mph100%29.98 "Hg2 mi
8:20 AM63 °FRain. Fog.9 mph100%29.98 "Hg3 mi
7:50 AM63 °FLight rain. Fog.5 mph100%29.98 "Hg3 mi
7:20 AM64 °FLight rain. Fog.5 mph94%29.98 "Hg3 mi
6:50 AM64 °FFog.3 mph94%29.98 "Hg3 mi
6:20 AM64 °FLight rain. Fog.5 mph94%29.98 "Hg3 mi
5:50 AM64 °FLight rain. Passing clouds.6 mph94%29.98 "Hg4 mi
5:20 AM64 °FLight rain. Passing clouds.6 mph94%29.98 "Hg4 mi
4:50 AM64 °FLight rain. Passing clouds.6 mph94%29.98 "HgN/A
4:20 AM64 °FPassing clouds.5 mph94%30.01 "HgN/A
3:50 AM64 °FPassing clouds.3 mph94%30.01 "HgN/A
3:20 AM64 °FPassing clouds.3 mph88%30.01 "HgN/A
2:50 AM64 °FPassing clouds.5 mph88%30.01 "HgN/A
2:20 AM64 °FPassing clouds.5 mph88%30.01 "HgN/A
1:50 AM64 °FPassing clouds.3 mph88%30.04 "HgN/A
1:20 AM64 °FPassing clouds.2 mph94%30.04 "HgN/A
12:50 AM66 °FPassing clouds.3 mph83%30.07 "HgN/A
12:20 AM68 °FPassing clouds.7 mph83%30.04 "HgN/A
11:50 PM
Fri, Jun 24
68 °FPassing clouds.3 mph83%30.04 "HgN/A
11:20 PM68 °FPassing clouds.5 mph88%30.04 "HgN/A
10:50 PM70 °FPartly sunny.3 mph83%30.04 "HgN/A
10:20 PM70 °FPartly sunny.5 mph83%30.04 "HgN/A
9:50 PM72 °FPartly sunny.7 mph78%30.04 "HgN/A
9:20 PM72 °FPartly sunny.5 mph78%30.04 "HgN/A
8:50 PM72 °FBroken clouds.7 mph78%30.04 "HgN/A
8:20 PM72 °FBroken clouds.7 mph83%30.04 "HgN/A
7:50 PM73 °FBroken clouds.6 mph78%30.04 "HgN/A
7:20 PM73 °FBroken clouds.7 mph78%30.04 "HgN/A
6:50 PM73 °FBroken clouds.8 mph78%30.04 "HgN/A
6:20 PM75 °FBroken clouds.7 mph74%30.04 "HgN/A
5:50 PM77 °FScattered clouds.6 mph65%30.04 "HgN/A
5:20 PM75 °FBroken clouds.6 mph69%30.04 "HgN/A
4:50 PM77 °FScattered clouds.5 mph65%30.04 "HgN/A
4:20 PM77 °FScattered clouds.8 mph69%30.04 "HgN/A
3:50 PM75 °FBroken clouds.10 mph74%30.04 "HgN/A
3:20 PM75 °FBroken clouds.13 mph78%30.07 "HgN/A
2:50 PM75 °FBroken clouds.9 mph78%30.04 "Hg6 mi
2:20 PM73 °FBroken clouds.10 mph83%30.04 "HgN/A
1:50 PM75 °FBroken clouds.9 mph78%30.04 "HgN/A
1:20 PM77 °FBroken clouds.10 mph74%30.04 "HgN/A
12:50 PM75 °FBroken clouds.7 mph78%30.04 "HgN/A
12:20 PM75 °FBroken clouds.7 mph78%30.04 "HgN/A
11:50 AM73 °FBroken clouds.9 mph83%30.04 "HgN/A
11:20 AM75 °FPartly sunny.9 mph78%30.04 "HgN/A
10:50 AM75 °FScattered clouds.8 mph78%30.04 "HgN/A
10:20 AM73 °FScattered clouds.6 mph83%30.01 "HgN/A
Weather by CustomWeather, © 2016

See weather overviewHow to use our weather pages